Temp
83 83 84 84 84 85 85 85 86 86 86 86 86 87 87 87 85 84 83 81 81 80 80 80 80 81 80 81 81 81 82 80 80 80 79 80 80 79 78 78 79 79 79 79 80 80 81 82 82 82 82 82 82 81 81 81 81 83 81 79 80 80 79
82 83 84 85 85 85 85 86 86 86 86 87 87 87 87 87 85 84 83 82 81 81 81 81 80 81 81 81 81 80 80 81 80 81 79 78 79 80 80 79 79 78 78 80 79 80 81 82 82 81 81 82 82 82 82 81 81 81 80 79 79 79 80
82 84 84 85 85 85 84 86 86 87 87 87 87 87 87 86 86 85 83 82 81 81 82 81 81 81 81 81 80 80 81 81 80 80 80 80 79 82 82 80 80 80 80 80 80 81 82 82 81 82 82 82 83 82 81 81 81 81 80 80 80 80 78
83 83 85 85 86 85 86 86 86 87 88 88 88 88 88 86 87 86 85 84 82 82 81 82 82 82 81 81 81 80 80 81 81 82 82 82 81 81 81 81 81 82 80 80 82 84 85 82 82 81 83 81 82 82 82 82 82 81 81 80 80 80 79
83 85 85 85 85 85 86 86 86 87 88 89 88 88 88 88 88 88 86 85 85 83 83 83 84 83 83 82 82 82 82 82 82 82 83 83 82 82 81 81 82 82 82 83 81 82 82 82 82 81 81 81 81 81 81 81 82 81 81 80 79 79 79
84 84 85 86 86 86 86 86 87 87 88 88 88 87 88 89 89 89 88 86 85 85 84 84 84 83 82 83 83 83 82 82 82 82 82 82 82 82 82 81 82 82 83 83 84 82 82 83 83 82 82 82 82 82 82 82 82 82 81 80 80 80 80
85 85 86 86 87 87 87 87 87 88 88 89 89 89 89 89 89 89 89 87 86 84 84 84 85 84 83 83 83 83 82 82 82 82 83 83 83 83 83 82 82 83 84 83 83 84 82 81 83 83 83 83 83 83 82 81 81 81 81 80 79 79 79
87 86 87 87 87 88 88 87 87 88 89 89 89 88 88 88 89 89 89 89 87 86 85 85 85 84 84 84 84 83 83 83 83 83 83 83 83 83 83 83 83 83 83 83 83 84 85 83 83 84 84 84 83 83 82 81 81 82 81 80 79 80 82
88 88 88 88 89 89 89 88 87 87 87 87 88 88 88 88 89 89 90 89 88 86 86 86 86 86 85 84 84 83 84 84 84 83 83 84 84 84 84 84 84 84 84 84 85 84 85 85 84 82 83 84 83 82 82 81 82 82 81 80 80 80 81
87 87 88 89 90 90 89 88 88 87 86 87 87 87 87 88 89 90 90 90 89 87 87 87 87 87 86 85 84 85 84 84 84 84 84 84 85 85 86 86 86 85 85 85 86 85 85 85 85 83 82 83 82 82 82 81 82 82 82 81 80 80 80
87 87 87 88 88 88 88 88 86 85 86 85 86 87 87 87 88 88 89 90 89 88 88 88 88 87 87 86 85 85 85 84 85 85 84 85 86 86 87 87 87 87 86 86 86 86 85 84 85 83 82 83 83 82 82 82 82 82 83 82 82 81 81
83 87 86 87 88 87 86 86 86 85 85 85 87 87 85 86 87 88 88 89 89 88 88 88 88 88 87 86 85 84 85 85 85 85 85 86 86 87 88 88 88 88 87 87 87 87 87 85 85 84 82 83 83 83 83 83 82 82 83 83 83 81 81
81 81 82 87 87 87 86 85 85 85 85 86 87 87 86 86 86 87 87 87 88 88 88 88 89 88 88 87 86 85 85 85 85 85 86 86 87 87 88 88 89 89 88 88 88 87 87 86 85 85 84 83 84 84 83 83 83 82 82 83 83 81 81
80 81 81 81 80 83 85 84 85 85 85 86 87 87 87 87 87 87 86 87 88 88 88 89 89 88 87 87 86 85 85 86 86 85 85 86 86 86 88 88 88 88 88 87 87 88 87 87 86 85 85 84 84 84 84 83 83 82 82 82 83 82 81
77 78 78 78 78 78 78 80 83 84 85 86 87 86 86 86 87 87 87 88 88 89 89 89 89 88 88 87 85 84 85 85 86 86 85 85 85 85 86 87 87 87 87 86 87 88 88 88 87 86 85 85 84 84 85 84 84 84 83 82 82 83 82
75 75 75 76 76 77 78 78 78 78 79 81 86 86 87 86 86 87 87 88 89 89 90 89 88 87 88 87 86 86 85 85 85 85 85 84 84 84 85 86 87 87 86 86 87 87 87 87 87 87 85 85 84 85 85 84 85 81 75 77 83 82 84
72 72 74 74 74 75 75 76 78 78 78 76 76 78 82 84 88 88 89 90 91 90 91 91 88 88 88 87 87 86 85 84 84 85 84 84 84 84 84 85 86 86 85 85 86 86 86 86 86 87 87 86 85 85 85 86 86 75 70 72 75 82 82
70 70 72 72 73 73 73 73 75 76 76 79 78 77 76 74 78 85 89 90 91 92 93 91 90 89 88 88 87 85 85 84 84 84 83 83 83 84 84 85 85 85 85 85 85 85 86 86 85 85 87 86 86 85 85 86 79 70 69 70 70 76 83
69 70 70 71 71 72 73 72 73 75 77 78 77 75 75 76 76 75 74 74 74 74 74 79 88 91 88 88 87 85 85 84 84 84 83 83 83 84 84 84 84 85 85 85 86 86 85 85 85 84 86 86 85 85 86 86 76 68 68 69 69 70 79
68 69 70 71 71 71 72 73 68 71 74 75 77 81 78 75 75 78 80 78 77 77 77 76 73 73 83 88 86 85 85 84 84 84 83 83 83 83 83 84 84 85 87 86 85 84 85 85 85 84 83 85 85 84 86 85 76 67 66 66 67 68 73
66 67 68 68 69 70 71 71 71 69 69 70 74 77 79 81 81 81 80 80 78 78 76 77 77 76 74 83 87 86 85 84 84 83 83 83 83 83 83 83 84 85 86 87 86 84 84 85 85 85 84 85 86 85 86 88 73 66 64 64 65 66 70
66 67 67 68 68 69 69 69 69 71 71 71 72 73 76 76 82 84 79 82 82 81 80 79 79 79 80 84 87 86 86 85 84 84 84 83 83 83 83 83 83 83 85 87 87 86 86 86 87 86 85 84 85 85 85 88 69 65 64 64 64 66 74
67 67 68 68 69 69 69 69 70 71 72 73 73 77 78 79 77 80 86 86 83 82 82 82 81 82 83 86 88 87 87 86 85 84 84 83 83 83 83 83 83 84 85 86 87 86 85 85 87 86 86 85 84 84 84 86 71 64 63 63 63 66 77
68 68 68 68 68 67 68 69 69 70 71 72 74 75 77 78 76 78 80 83 85 83 84 85 85 85 86 87 89 88 87 87 86 85 84 84 83 83 84 85 85 86 86 86 87 87 87 87 87 87 87 86 86 85 84 87 73 61 62 62 61 67 77
66 67 67 67 66 66 66 67 68 69 70 70 71 73 75 75 74 75 78 80 82 86 86 87 88 89 88 88 89 89 88 88 87 86 85 84 84 85 84 85 85 86 86 87 88 88 88 87 87 87 87 88 88 82 85 87 75 59 62 61 60 67 78
60 65 66 67 67 67 66 67 67 66 66 67 68 71 72 74 75 75 77 78 81 82 86 89 90 91 91 90 90 89 88 88 86 86 86 85 85 85 85 86 86 86 86 87 88 88 88 87 87 87 87 87 87 87 87 87 82 65 60 60 59 62 78
62 65 65 65 65 66 66 65 65 65 65 66 67 70 71 73 73 74 75 76 78 79 83 88 91 90 88 88 90 90 88 88 87 87 86 86 85 87 87 87 86 86 86 87 88 88 87 87 87 87 87 87 87 87 87 88 86 71 57 57 58 58 67
62 63 65 65 65 65 64 64 63 64 65 66 68 69 70 71 70 71 72 74 75 78 83 86 89 90 88 85 88 90 88 88 87 88 87 87 86 85 85 86 87 86 86 87 86 85 84 85 85 86 86 86 86 87 87 85 80 81 58 57 56 57 58
59 59 61 62 62 64 64 62 62 63 64 66 67 68 69 69 68 69 71 71 74 78 81 84 88 89 89 87 88 88 88 87 86 86 86 86 86 86 85 85 86 86 85 84 84 83 83 83 83 84 84 84 85 86 86 86 83 73 69 56 55 55 56
61 62 62 63 63 63 63 62 62 62 64 65 66 67 67 67 66 67 68 70 74 77 81 84 87 88 88 87 87 88 88 87 87 87 87 87 86 85 84 84 85 84 84 84 83 83 82 83 82 82 83 83 84 85 86 85 86 72 66 64 55 55 55
61 60 61 60 61 62 62 61 61 62 63 64 65 66 66 67 66 66 67 70 74 76 79 83 86 88 88 88 87 87 88 87 87 87 87 87 86 84 84 84 84 83 84 83 83 83 82 82 82 82 82 83 82 84 85 85 84 82 69 63 58 56 55
60 61 60 61 61 61 62 62 62 62 61 62 64 65 65 66 66 65 67 70 73 76 79 82 84 85 86 87 87 87 87 86 86 86 87 86 86 85 85 84 84 83 83 83 83 83 82 82 82 82 82 82 83 84 84 84 84 82 77 67 63 58 56
58 59 59 58 60 62 61 60 60 60 61 60 62 64 65 65 66 67 68 70 74 79 81 82 83 84 85 85 85 86 86 85 85 85 85 85 85 85 85 85 84 83 81 82 83 83 82 82 81 81 82 82 83 84 83 84 84 82 79 74 70 68 65
58 59 59 60 60 61 61 60 59 59 60 60 62 63 64 65 65 67 68 72 78 79 79 81 83 85 85 86 85 85 86 86 83 83 84 85 85 84 85 85 85 84 82 83 83 83 82 82 82 82 82 82 83 83 82 83 83 82 79 75 73 71 70
58 59 59 59 59 60 59 58 59 59 59 60 62 63 64 64 66 68 72 77 78 75 76 80 82 84 86 87 86 86 85 86 84 85 84 84 84 85 85 85 84 83 84 87 87 86 85 84 83 84 85 85 84 83 81 81 81 82 71 77 67 72 72
58 59 58 59 60 59 58 59 58 58 59 60 62 63 63 65 69 72 76 77 76 75 74 74 80 83 84 85 86 86 84 84 85 85 84 85 84 84 78 65 58 70 84 86 78 73 71 70 84 85 86 85 85 85 84 83 85 70 61 59 58 58 60
57 58 58 59 58 57 57 57 58 58 59 60 62 63 65 67 69 72 75 76 75 74 74 72 72 76 79 82 84 83 84 84 84 84 84 84 84 83 78 75 67 48 44 52 67 67 59 59 64 68 71 82 84 79 70 74 65 54 56 55 54 54 54
58 58 59 58 57 56 57 56 57 57 58 60 62 63 64 66 68 70 73 75 74 74 72 72 72 72 72 75 72 70 70 72 73 74 76 79 83 81 77 75 71 66 52 45 47 57 59 58 59 58 60 65 73 74 71 62 57 52 53 54 53 53 53
MSLP
1005.78 1006.22 1006.18 1006.22 1006.54 1006.62 1006.74 1006.94 1007.14 1007.54 1007.90 1008.34 1008.66 1009.02 1009.54 1009.90 1010.42 1010.98 1011.58 1012.06 1012.50 1012.98 1013.06 1013.22 1013.50 1013.78 1014.22 1014.50 1014.74 1014.86 1015.02 1015.42 1015.62 1015.98 1016.22 1016.34 1016.34 1016.58 1016.86 1016.94 1017.10 1017.22 1017.34 1017.62 1017.66 1017.66 1017.58 1017.54 1017.74 1017.86 1018.02 1018.14 1018.30 1018.42 1018.54 1018.58 1018.78 1018.82 1018.94 1019.02 1019.18 1019.38 1019.58
1006.06 1005.86 1005.82 1005.78 1006.06 1006.26 1006.30 1006.38 1006.70 1007.10 1007.46 1007.78 1008.22 1008.62 1009.06 1009.54 1009.98 1010.50 1010.98 1011.42 1011.86 1012.30 1012.62 1012.82 1013.18 1013.46 1013.66 1014.02 1014.30 1014.62 1014.94 1015.10 1015.34 1015.54 1015.86 1016.14 1016.18 1016.26 1016.30 1016.58 1016.74 1016.98 1017.02 1017.06 1017.18 1017.22 1017.30 1017.38 1017.46 1017.74 1017.94 1017.98 1018.14 1018.18 1018.30 1018.42 1018.54 1018.74 1018.90 1019.02 1019.22 1019.38 1019.46
1005.22 1005.10 1005.18 1005.30 1005.58 1005.74 1005.90 1006.06 1006.34 1006.58 1006.90 1007.30 1007.74 1008.18 1008.54 1008.98 1009.26 1009.70 1010.34 1010.94 1011.54 1011.90 1012.18 1012.42 1012.58 1012.90 1013.18 1013.54 1014.02 1014.38 1014.58 1014.86 1015.14 1015.38 1015.70 1015.86 1015.98 1016.02 1016.06 1016.18 1016.38 1016.62 1016.70 1016.74 1016.90 1017.10 1017.06 1017.26 1017.30 1017.42 1017.62 1017.90 1017.98 1018.06 1018.14 1018.30 1018.38 1018.54 1018.74 1018.90 1019.14 1019.34 1019.50
1004.34 1004.50 1004.34 1004.26 1004.42 1004.74 1005.10 1005.38 1005.78 1006.10 1006.26 1006.58 1006.98 1007.38 1007.82 1008.30 1008.50 1008.94 1009.50 1010.14 1010.90 1011.46 1011.98 1012.10 1012.30 1012.66 1012.98 1013.38 1013.70 1013.98 1014.30 1014.50 1014.62 1014.86 1015.06 1015.22 1015.54 1015.66 1015.94 1016.10 1016.18 1016.26 1016.62 1016.74 1016.66 1016.70 1016.78 1016.94 1017.18 1017.30 1017.38 1017.66 1017.78 1017.86 1017.98 1018.14 1018.22 1018.38 1018.54 1018.78 1019.06 1019.14 1019.26
1003.66 1003.54 1003.94 1004.30 1004.58 1004.90 1005.14 1005.34 1005.50 1005.58 1005.86 1006.02 1006.34 1006.70 1007.10 1007.50 1007.98 1008.50 1008.98 1009.46 1010.02 1010.74 1011.02 1011.38 1011.70 1012.10 1012.50 1012.82 1013.14 1013.42 1013.70 1013.98 1014.30 1014.50 1014.66 1014.82 1015.02 1015.30 1015.70 1015.90 1015.98 1016.10 1016.18 1016.26 1016.38 1016.58 1016.70 1016.86 1017.02 1017.14 1017.26 1017.38 1017.62 1017.74 1017.86 1017.94 1018.10 1018.18 1018.42 1018.58 1018.94 1019.02 1019.18
1003.74 1003.74 1003.74 1003.90 1004.10 1004.30 1004.46 1004.66 1004.82 1005.06 1005.46 1005.86 1006.14 1006.58 1006.82 1007.18 1007.58 1008.10 1008.42 1009.02 1009.50 1009.90 1010.50 1011.10 1011.42 1011.58 1012.10 1012.34 1012.74 1013.06 1013.30 1013.54 1013.74 1014.02 1014.34 1014.54 1014.82 1015.14 1015.30 1015.42 1015.58 1015.74 1015.98 1016.06 1016.02 1016.22 1016.34 1016.54 1016.70 1016.86 1017.06 1017.18 1017.30 1017.54 1017.62 1017.82 1017.94 1018.02 1018.26 1018.46 1018.70 1018.82 1019.06
1003.10 1003.14 1003.26 1003.38 1003.50 1003.74 1003.94 1004.14 1004.34 1004.62 1004.82 1005.06 1005.42 1005.82 1006.26 1006.70 1007.14 1007.46 1007.86 1008.50 1008.94 1009.66 1010.14 1010.58 1010.74 1011.02 1011.46 1011.90 1012.34 1012.66 1013.02 1013.26 1013.50 1013.78 1013.94 1014.26 1014.42 1014.74 1014.82 1014.98 1015.10 1015.26 1015.34 1015.54 1015.78 1015.82 1016.14 1016.30 1016.34 1016.46 1016.62 1016.82 1017.06 1017.22 1017.42 1017.62 1017.82 1017.86 1018.06 1018.30 1018.54 1018.58 1018.70
1002.18 1002.70 1002.58 1002.54 1002.70 1002.94 1003.30 1003.54 1003.98 1004.30 1004.54 1004.82 1005.34 1005.78 1006.22 1006.38 1006.78 1007.14 1007.54 1007.82 1008.42 1008.98 1009.46 1009.90 1010.30 1010.50 1010.74 1011.18 1011.62 1012.10 1012.46 1012.70 1012.86 1013.18 1013.50 1013.86 1014.10 1014.38 1014.50 1014.62 1014.74 1014.78 1015.02 1015.38 1015.34 1015.42 1015.70 1015.90 1016.02 1016.10 1016.26 1016.54 1016.74 1016.86 1017.06 1017.26 1017.46 1017.62 1017.86 1018.18 1018.38 1018.54 1018.46
1000.94 1001.18 1001.74 1002.02 1002.26 1002.54 1002.70 1002.98 1003.50 1003.98 1004.38 1004.74 1005.02 1005.38 1005.74 1006.10 1006.42 1006.66 1006.94 1007.38 1007.86 1008.46 1008.82 1008.98 1009.38 1009.62 1010.02 1010.62 1011.14 1011.58 1011.86 1012.18 1012.46 1012.70 1013.06 1013.46 1013.66 1013.90 1014.02 1014.18 1014.26 1014.34 1014.74 1014.94 1015.06 1015.06 1015.22 1015.38 1015.58 1015.78 1015.94 1016.18 1016.38 1016.58 1016.78 1016.98 1017.18 1017.30 1017.58 1017.86 1018.10 1018.26 1018.34
1000.50 1001.18 1001.26 1001.30 1001.58 1001.94 1002.30 1002.62 1003.06 1003.70 1004.38 1004.66 1004.82 1005.14 1005.46 1005.62 1005.82 1006.10 1006.38 1006.66 1007.18 1007.78 1008.06 1008.46 1008.86 1009.26 1009.66 1010.06 1010.46 1010.86 1011.38 1011.78 1011.94 1012.26 1012.54 1012.90 1012.98 1013.30 1013.42 1013.58 1013.78 1013.94 1014.26 1014.42 1014.54 1014.86 1014.86 1014.90 1015.14 1015.42 1015.70 1015.94 1016.10 1016.30 1016.46 1016.70 1016.86 1017.06 1017.18 1017.42 1017.66 1017.90 1018.06
1000.06 1000.26 1000.82 1001.34 1001.70 1001.98 1002.34 1002.86 1003.30 1003.62 1003.86 1004.18 1004.46 1004.70 1005.06 1005.34 1005.58 1005.86 1006.10 1006.18 1006.54 1006.90 1007.22 1007.74 1008.22 1008.78 1009.14 1009.46 1010.02 1010.46 1010.90 1011.18 1011.42 1011.74 1011.94 1012.14 1012.30 1012.62 1012.82 1013.06 1013.30 1013.50 1013.78 1014.02 1014.26 1014.34 1014.54 1014.70 1014.70 1015.10 1015.38 1015.62 1015.78 1015.98 1016.14 1016.26 1016.46 1016.70 1016.86 1016.98 1017.10 1017.38 1017.62
1000.18 1000.50 1000.82 1001.02 1001.38 1001.82 1002.50 1002.66 1002.90 1003.34 1003.58 1003.82 1003.98 1004.34 1004.74 1005.06 1005.26 1005.46 1005.66 1005.82 1005.90 1006.46 1006.82 1007.18 1007.58 1008.14 1008.62 1008.94 1009.50 1009.94 1010.26 1010.58 1010.86 1011.10 1011.22 1011.42 1011.70 1011.94 1012.18 1012.42 1012.74 1013.02 1013.22 1013.42 1013.78 1013.90 1014.02 1014.30 1014.46 1014.62 1014.98 1015.06 1015.22 1015.38 1015.58 1015.74 1015.98 1016.22 1016.42 1016.58 1016.78 1017.02 1017.22
1001.94 1002.22 1001.86 1001.10 1000.82 1001.22 1001.70 1002.38 1002.86 1002.94 1003.14 1003.26 1003.46 1003.78 1004.18 1004.54 1004.94 1005.18 1005.38 1005.66 1005.78 1006.06 1006.46 1006.70 1007.10 1007.58 1008.14 1008.50 1008.82 1009.26 1009.62 1009.90 1010.14 1010.30 1010.58 1010.82 1011.02 1011.22 1011.58 1011.86 1012.06 1012.34 1012.70 1012.78 1013.14 1013.46 1013.70 1013.78 1014.02 1014.10 1014.34 1014.58 1014.74 1014.98 1015.18 1015.38 1015.58 1015.82 1016.02 1016.18 1016.38 1016.66 1016.98
1003.34 1002.98 1002.62 1002.98 1003.34 1002.22 1001.70 1001.98 1002.18 1002.58 1002.74 1002.90 1003.10 1003.26 1003.58 1003.90 1004.18 1004.62 1004.98 1005.34 1005.54 1005.82 1006.18 1006.42 1006.74 1007.14 1007.58 1007.98 1008.38 1008.70 1008.94 1009.10 1009.30 1009.70 1009.94 1010.18 1010.46 1010.74 1010.94 1011.22 1011.46 1011.70 1011.90 1012.22 1012.66 1012.90 1013.10 1013.38 1013.58 1013.66 1013.82 1014.06 1014.30 1014.42 1014.66 1014.98 1015.26 1015.46 1015.62 1015.78 1015.98 1016.30 1016.58
1004.86 1004.62 1004.66 1004.82 1004.22 1004.06 1004.10 1003.50 1002.70 1002.30 1002.38 1002.54 1002.74 1003.22 1003.46 1003.74 1004.02 1004.30 1004.66 1004.90 1005.30 1005.62 1005.86 1005.98 1006.46 1006.86 1007.22 1007.54 1007.90 1007.98 1008.06 1008.38 1008.74 1009.10 1009.54 1009.86 1010.18 1010.42 1010.58 1010.74 1010.94 1011.14 1011.42 1011.74 1012.02 1012.22 1012.42 1012.62 1012.94 1013.38 1013.66 1013.74 1013.90 1014.14 1014.30 1014.66 1014.90 1015.02 1015.22 1015.54 1015.74 1015.86 1016.22
1006.02 1006.18 1006.22 1005.74 1005.42 1005.42 1005.26 1004.94 1004.62 1004.22 1003.82 1003.58 1003.26 1003.22 1003.42 1003.66 1003.90 1004.10 1004.46 1004.78 1004.94 1005.26 1005.42 1005.74 1006.22 1006.62 1006.86 1007.06 1007.14 1007.26 1007.58 1008.02 1008.42 1008.78 1009.14 1009.58 1009.82 1009.94 1010.06 1010.30 1010.54 1010.78 1011.06 1011.30 1011.46 1011.70 1011.90 1012.22 1012.46 1012.82 1013.22 1013.54 1013.70 1013.82 1014.02 1014.26 1014.34 1014.46 1014.66 1014.82 1015.14 1015.50 1015.70
1007.06 1007.22 1007.10 1006.66 1006.26 1006.26 1006.22 1005.82 1005.42 1005.14 1004.78 1004.50 1004.34 1004.34 1004.38 1004.30 1004.06 1003.90 1004.10 1004.38 1004.62 1004.90 1005.06 1005.42 1006.02 1006.34 1006.46 1006.58 1006.58 1006.90 1007.30 1007.82 1008.18 1008.46 1008.94 1009.02 1009.22 1009.46 1009.70 1009.94 1010.10 1010.38 1010.62 1010.86 1011.06 1011.34 1011.54 1011.86 1012.22 1012.42 1012.66 1012.98 1013.30 1013.62 1013.70 1013.74 1013.78 1013.98 1014.30 1014.50 1014.66 1014.98 1015.34
1008.06 1008.02 1007.82 1007.62 1007.02 1006.70 1006.70 1006.78 1006.50 1006.10 1005.94 1005.46 1005.18 1004.86 1004.54 1004.42 1004.38 1004.42 1004.66 1004.58 1004.74 1004.90 1005.06 1005.50 1005.94 1006.26 1006.38 1006.38 1006.58 1006.82 1007.14 1007.38 1007.78 1008.22 1008.42 1008.70 1008.94 1009.06 1009.22 1009.42 1009.74 1010.02 1010.22 1010.46 1010.78 1010.94 1011.14 1011.54 1011.78 1011.94 1012.14 1012.46 1012.78 1013.10 1013.26 1013.34 1013.26 1013.58 1013.86 1014.10 1014.34 1014.50 1014.78
1008.86 1008.58 1008.46 1008.22 1007.82 1007.46 1007.22 1007.10 1007.22 1006.82 1006.26 1005.98 1005.58 1005.26 1004.86 1004.78 1004.78 1004.54 1004.42 1004.74 1005.54 1006.14 1007.22 1007.70 1007.06 1006.38 1006.46 1006.46 1006.54 1006.70 1006.78 1007.10 1007.50 1007.78 1008.06 1008.22 1008.38 1008.62 1008.94 1009.22 1009.42 1009.62 1009.90 1010.14 1010.14 1010.46 1010.90 1011.10 1011.34 1011.62 1011.66 1011.98 1012.46 1012.70 1012.74 1012.90 1012.90 1013.22 1013.46 1013.74 1013.98 1014.14 1014.34
1009.30 1009.18 1009.02 1008.86 1008.46 1008.26 1008.02 1007.54 1007.46 1007.38 1007.06 1006.74 1006.06 1005.42 1004.82 1004.46 1004.54 1004.34 1004.42 1004.90 1005.06 1005.06 1005.70 1006.90 1008.74 1009.50 1007.82 1006.34 1006.38 1006.38 1006.54 1006.82 1007.14 1007.46 1007.58 1007.78 1008.10 1008.42 1008.74 1008.94 1009.02 1008.98 1009.06 1009.42 1009.78 1010.18 1010.42 1010.62 1010.94 1011.14 1011.38 1011.50 1011.82 1012.14 1012.22 1012.42 1012.46 1012.82 1013.10 1013.38 1013.66 1013.86 1014.10
1009.62 1009.54 1009.62 1009.38 1009.22 1009.02 1008.82 1008.58 1008.50 1008.14 1007.70 1007.06 1006.18 1005.58 1005.38 1004.82 1004.02 1004.26 1004.18 1004.14 1004.70 1005.02 1005.26 1005.82 1006.66 1007.54 1008.14 1007.06 1005.86 1005.98 1006.22 1006.50 1006.74 1007.06 1007.30 1007.54 1007.82 1008.14 1008.38 1008.46 1008.58 1008.78 1008.86 1009.06 1009.38 1009.74 1010.02 1010.22 1010.54 1010.66 1010.90 1011.06 1011.26 1011.62 1011.86 1011.86 1011.94 1012.38 1012.70 1013.02 1013.26 1013.50 1013.82
1009.98 1009.98 1010.06 1009.78 1009.58 1009.22 1009.06 1009.02 1008.78 1008.54 1008.26 1007.38 1006.50 1005.90 1005.58 1005.46 1004.90 1004.82 1005.10 1004.62 1004.46 1004.86 1005.18 1005.54 1005.78 1006.14 1006.18 1006.22 1005.62 1005.42 1005.50 1005.82 1006.18 1006.54 1006.86 1007.22 1007.54 1007.82 1008.06 1008.14 1008.26 1008.46 1008.46 1008.66 1008.86 1009.06 1009.30 1009.58 1009.74 1010.18 1010.50 1010.66 1010.86 1011.22 1011.54 1011.30 1011.50 1011.90 1012.26 1012.54 1012.86 1013.14 1013.66
1010.22 1010.38 1010.42 1010.14 1009.78 1009.42 1009.18 1009.02 1008.62 1008.10 1007.54 1007.34 1006.94 1006.30 1006.02 1005.50 1005.26 1004.98 1004.50 1004.10 1003.98 1004.26 1004.62 1004.94 1005.38 1005.34 1005.26 1005.14 1004.86 1004.74 1004.78 1005.02 1005.50 1005.94 1006.34 1006.66 1007.10 1007.38 1007.54 1007.78 1007.98 1008.10 1008.06 1008.50 1008.58 1008.90 1009.14 1009.30 1009.42 1009.54 1009.90 1010.22 1010.46 1010.78 1011.02 1010.98 1011.06 1011.38 1011.78 1012.10 1012.38 1013.06 1013.34
1010.38 1010.50 1010.54 1010.30 1009.98 1009.82 1009.50 1009.06 1008.50 1007.90 1007.42 1006.94 1006.86 1006.74 1006.22 1005.66 1005.46 1005.22 1004.90 1004.66 1004.14 1004.34 1004.18 1004.26 1004.42 1004.22 1004.26 1004.18 1003.94 1003.90 1004.06 1004.30 1004.78 1005.34 1005.74 1006.14 1006.46 1006.66 1006.90 1007.10 1007.34 1007.62 1007.62 1008.06 1008.30 1008.50 1008.58 1008.78 1009.10 1009.18 1009.30 1009.62 1009.94 1010.06 1010.54 1010.58 1010.62 1010.94 1011.22 1011.58 1011.98 1012.42 1012.78
1010.98 1010.94 1010.78 1010.42 1010.26 1010.22 1009.90 1009.38 1008.94 1008.38 1007.74 1007.26 1006.86 1006.38 1006.14 1005.94 1005.46 1005.26 1005.22 1004.74 1004.50 1003.94 1003.78 1003.54 1003.34 1003.22 1003.26 1003.22 1003.02 1003.06 1003.30 1003.62 1004.02 1004.54 1005.02 1005.42 1005.66 1005.94 1006.46 1006.66 1006.86 1006.98 1007.18 1007.42 1007.66 1007.90 1008.06 1008.38 1008.74 1008.90 1008.94 1009.02 1009.22 1009.42 1009.86 1010.02 1010.22 1010.54 1010.74 1011.06 1011.46 1011.98 1012.14
1012.06 1011.22 1010.86 1010.34 1010.14 1010.14 1009.82 1009.38 1008.94 1008.50 1008.10 1007.58 1007.14 1006.70 1006.46 1006.26 1006.10 1005.90 1005.42 1004.82 1004.26 1004.14 1003.54 1002.70 1002.18 1001.98 1001.98 1002.14 1002.38 1002.58 1002.86 1003.06 1003.46 1003.78 1004.18 1004.62 1004.98 1005.34 1005.70 1005.98 1006.46 1006.78 1006.98 1007.18 1007.26 1007.54 1007.70 1007.98 1008.26 1008.62 1008.70 1008.62 1008.86 1009.10 1009.22 1009.50 1009.78 1010.18 1010.42 1010.66 1011.02 1011.34 1011.54
1011.78 1011.34 1010.94 1010.58 1010.26 1009.82 1009.54 1009.30 1009.14 1008.90 1008.42 1007.82 1007.18 1006.74 1006.54 1006.38 1006.30 1005.98 1005.42 1004.86 1004.38 1003.90 1003.22 1002.30 1001.50 1001.34 1001.46 1001.66 1001.90 1002.18 1002.42 1002.58 1002.86 1003.22 1003.42 1003.70 1004.26 1004.70 1005.22 1005.54 1005.94 1006.22 1006.66 1006.94 1007.02 1007.26 1007.50 1007.70 1007.90 1008.14 1008.30 1008.30 1008.38 1008.58 1008.74 1008.82 1009.22 1009.62 1009.94 1010.34 1010.66 1010.98 1011.18
1011.42 1011.18 1010.82 1010.74 1010.58 1010.18 1009.74 1009.42 1009.22 1008.82 1008.30 1007.74 1007.14 1006.70 1006.46 1006.38 1006.34 1005.94 1005.50 1004.98 1004.30 1003.30 1002.34 1002.02 1001.50 1001.06 1001.06 1001.34 1001.50 1001.66 1001.94 1002.18 1002.30 1002.50 1002.94 1003.30 1003.86 1004.54 1004.86 1004.90 1005.26 1005.70 1006.10 1006.38 1006.74 1007.14 1007.34 1007.42 1007.58 1007.78 1007.98 1007.98 1008.02 1008.14 1008.30 1008.30 1008.50 1009.06 1009.62 1009.86 1010.30 1010.62 1010.78
1011.58 1011.50 1011.22 1010.82 1010.54 1010.38 1010.30 1010.02 1009.54 1009.18 1008.66 1007.90 1007.38 1006.86 1006.54 1006.42 1006.22 1005.78 1005.30 1004.90 1003.90 1002.94 1002.30 1001.66 1001.14 1000.86 1000.70 1000.86 1001.10 1001.26 1001.54 1001.78 1002.02 1002.38 1002.58 1003.02 1003.30 1003.86 1004.42 1004.66 1005.06 1005.34 1005.66 1006.14 1006.54 1006.86 1007.18 1007.30 1007.38 1007.62 1007.86 1007.94 1007.90 1007.86 1007.90 1007.98 1008.14 1008.38 1009.02 1009.54 1009.86 1010.22 1010.50
1011.58 1011.22 1011.14 1010.94 1010.86 1010.62 1010.38 1010.22 1009.74 1009.18 1008.58 1008.02 1007.46 1006.98 1006.66 1006.50 1006.18 1005.54 1005.02 1004.18 1003.14 1002.82 1002.14 1001.46 1000.74 1000.38 1000.38 1000.38 1000.50 1000.70 1001.02 1001.30 1001.66 1001.94 1002.14 1002.50 1002.98 1003.46 1004.06 1004.46 1004.70 1005.02 1005.34 1005.66 1006.14 1006.58 1006.98 1007.06 1007.18 1007.42 1007.70 1007.94 1007.98 1007.74 1007.62 1007.58 1007.70 1008.06 1008.22 1008.82 1009.34 1009.66 1009.86
1011.86 1011.46 1011.10 1010.94 1010.74 1010.54 1010.42 1010.18 1009.50 1008.74 1008.34 1007.98 1007.42 1006.94 1006.54 1006.34 1006.14 1005.34 1004.66 1003.34 1002.82 1002.46 1001.90 1001.18 1000.46 999.98 999.86 999.86 999.98 1000.22 1000.38 1000.82 1001.22 1001.54 1001.78 1002.10 1002.46 1003.22 1003.66 1004.14 1004.42 1005.02 1005.02 1005.38 1005.82 1006.14 1006.54 1006.70 1006.82 1007.18 1007.30 1007.50 1007.70 1007.58 1007.42 1007.26 1007.30 1007.62 1007.90 1008.06 1008.54 1008.94 1009.26
1011.74 1011.38 1011.14 1010.90 1010.66 1010.50 1010.34 1009.90 1009.26 1008.66 1008.14 1007.66 1007.34 1006.74 1006.30 1005.94 1005.74 1005.38 1004.10 1003.06 1002.42 1001.78 1001.18 1000.58 1000.06 999.58 999.26 999.18 999.38 999.66 999.98 1000.62 1000.94 1001.18 1001.42 1001.74 1002.02 1002.50 1002.94 1003.58 1004.10 1004.54 1004.86 1005.14 1005.42 1005.66 1006.02 1006.34 1006.54 1006.78 1006.98 1007.14 1007.10 1007.18 1007.06 1006.90 1007.02 1007.22 1007.50 1007.90 1008.02 1008.42 1008.78
1011.70 1011.38 1011.14 1010.90 1010.54 1010.34 1010.18 1009.86 1009.30 1008.58 1007.98 1007.50 1006.94 1006.46 1005.86 1005.38 1004.82 1004.42 1003.62 1002.82 1001.82 1000.90 1000.26 999.74 999.18 998.94 998.70 998.78 998.98 999.22 999.62 1000.18 1000.62 1000.98 1001.18 1001.50 1001.82 1002.22 1002.70 1003.10 1003.62 1004.14 1004.66 1004.86 1005.06 1005.34 1005.62 1005.94 1006.26 1006.50 1006.66 1006.78 1006.74 1006.66 1006.66 1006.70 1006.74 1006.90 1007.14 1007.50 1008.06 1008.46 1008.66
1011.42 1011.14 1010.78 1010.58 1010.46 1010.46 1010.30 1009.94 1009.38 1008.58 1007.90 1007.38 1006.66 1006.14 1005.66 1005.14 1004.46 1003.50 1002.82 1001.94 1000.98 1000.54 1000.02 999.14 998.46 998.38 998.34 998.34 998.50 998.90 999.18 999.58 999.94 1000.50 1001.06 1001.38 1001.74 1002.30 1002.66 1002.82 1003.02 1003.58 1003.90 1004.02 1004.18 1004.70 1005.14 1005.38 1005.74 1005.94 1006.06 1006.26 1006.22 1006.30 1006.46 1006.54 1006.46 1006.46 1006.74 1007.14 1007.46 1007.78 1008.06
1011.22 1010.98 1010.78 1010.50 1010.42 1010.46 1010.46 1010.02 1009.34 1008.62 1007.94 1007.22 1006.46 1005.86 1005.26 1004.74 1003.94 1002.98 1002.10 1001.22 1000.74 1000.58 1000.22 999.06 998.10 997.90 997.86 997.90 998.14 998.58 998.74 999.14 999.78 1000.18 1000.66 1001.14 1001.42 1001.50 1001.58 1002.06 1002.54 1002.74 1002.74 1002.54 1002.74 1003.18 1003.66 1004.14 1004.42 1004.54 1004.54 1004.78 1005.18 1005.74 1006.18 1006.18 1006.22 1005.62 1005.18 1005.62 1006.02 1006.62 1007.50
1010.98 1010.70 1010.58 1010.42 1010.30 1010.30 1010.18 1009.82 1009.30 1008.58 1007.86 1007.14 1006.38 1005.74 1005.10 1004.30 1003.38 1002.46 1001.58 1001.06 1000.66 1000.38 1000.18 999.30 998.26 998.06 997.82 997.78 998.02 998.26 998.74 999.10 999.54 999.82 1000.22 1000.62 1000.98 1001.26 1001.58 1001.82 1002.06 1001.98 1002.30 1002.50 1002.30 1002.46 1002.66 1003.06 1003.54 1003.38 1003.58 1004.14 1004.14 1004.18 1004.90 1005.10 1004.58 1004.46 1005.02 1005.42 1005.90 1006.26 1006.42
1010.70 1010.50 1010.42 1010.26 1010.30 1010.26 1010.10 1009.62 1009.02 1008.34 1007.78 1007.14 1006.34 1005.70 1004.98 1004.22 1003.38 1002.46 1001.50 1000.98 1000.66 1000.50 999.98 999.42 998.82 998.18 997.86 997.94 998.06 998.10 998.46 998.78 999.22 999.50 999.82 1000.06 1000.46 1000.86 1001.62 1002.30 1002.54 1002.82 1003.02 1002.82 1002.50 1002.34 1002.62 1002.78 1002.90 1003.14 1003.34 1003.58 1004.10 1003.90 1003.78 1004.06 1004.46 1004.70 1004.94 1005.46 1005.86 1006.14 1006.38
1010.22 1010.18 1010.22 1010.14 1010.26 1010.26 1009.98 1009.54 1008.90 1008.22 1007.70 1007.14 1006.50 1005.86 1005.18 1004.46 1003.50 1002.70 1001.82 1000.98 1000.62 1000.38 1000.22 999.70 999.22 998.78 998.38 997.74 997.74 998.14 998.46 998.90 999.50 1000.14 1000.86 1000.86 1000.50 1000.74 1001.42 1002.14 1002.82 1003.14 1003.26 1003.50 1003.26 1002.90 1002.66 1002.78 1002.90 1002.94 1003.06 1003.14 1003.38 1003.90 1004.34 1004.38 1004.34 1004.50 1004.86 1005.14 1005.54 1005.94 1006.22
Wind_Speed
20 19 18 17 17 18 17 16 17 18 17 17 18 18 19 18 17 16 16 18 20 17 16 15 17 16 17 14 13 13 12 10 9 9 9 10 9 8 7 6 7 8 7 8 8 9 7 7 7 7 7 8 7 5 6 6 5 5 4 3 3 2 2
18 18 19 19 18 19 19 17 17 16 16 16 17 18 17 19 17 17 17 19 20 20 19 17 17 16 17 16 14 13 13 13 11 10 8 8 8 8 8 8 8 7 7 8 7 6 7 7 7 7 8 8 8 7 6 6 5 5 4 3 4 3 2
21 20 20 19 19 18 19 18 17 16 17 17 17 18 18 18 18 19 18 19 20 20 18 18 18 17 17 16 15 15 14 13 12 12 11 10 10 11 10 9 8 8 7 6 6 6 6 7 6 7 8 8 8 8 7 6 6 6 5 5 4 5 4
22 23 21 22 20 19 20 20 20 18 17 18 20 21 20 19 18 18 18 20 21 20 20 19 17 16 15 15 15 15 15 15 14 13 13 12 11 9 10 9 9 8 7 7 8 8 7 7 8 7 8 8 8 8 7 7 7 7 7 6 6 6 5
23 23 20 18 18 17 18 18 19 19 19 19 19 20 20 19 18 17 16 19 21 22 21 20 17 16 14 15 13 13 16 16 15 13 12 12 11 9 9 11 10 10 10 9 7 8 8 8 8 8 8 8 8 8 8 7 7 7 7 6 6 6 6
21 19 18 19 18 19 19 20 21 21 20 20 19 18 19 19 17 19 18 19 20 20 18 18 18 17 17 16 14 14 14 14 14 14 13 12 12 12 11 11 11 11 10 11 9 8 9 9 9 9 9 8 9 8 8 8 7 8 7 7 7 6 6
19 19 18 18 19 19 20 20 20 21 20 20 18 17 18 18 19 19 18 18 20 21 21 20 20 18 16 15 16 15 16 16 15 15 14 13 13 13 13 11 11 11 10 9 11 10 8 8 10 10 10 10 9 9 9 8 8 7 8 8 7 7 7
20 19 18 21 20 20 20 19 19 19 18 17 17 17 18 18 17 17 18 18 18 19 19 20 19 18 18 16 16 17 17 17 16 15 14 15 14 14 14 13 12 11 10 10 11 11 12 9 8 9 11 10 10 10 9 9 9 8 7 8 8 8 7
24 22 21 20 19 18 19 19 18 19 20 19 19 18 19 18 18 18 18 17 17 19 20 20 20 19 17 17 16 18 17 16 16 16 16 17 15 16 15 14 13 12 12 12 10 10 11 12 10 9 11 11 10 10 9 9 9 8 8 8 9 9 8
22 20 21 21 18 17 18 17 17 17 18 18 18 17 19 18 18 18 17 18 18 21 21 20 18 17 17 17 18 18 17 17 16 18 17 17 16 17 16 15 14 13 13 13 11 11 10 11 12 9 10 11 11 11 10 9 10 10 10 10 10 10 9
18 22 21 19 18 18 16 15 18 17 18 17 17 16 17 17 17 17 16 15 18 19 20 19 17 17 18 18 19 18 18 18 17 18 19 19 17 18 17 16 14 13 14 13 13 12 11 11 11 10 11 12 12 12 11 11 11 11 11 10 9 10 9
13 22 19 20 19 18 17 18 17 15 16 16 17 17 17 16 17 18 17 17 15 15 17 18 17 17 17 17 18 18 20 19 18 19 20 20 18 18 18 16 15 15 14 14 14 13 13 13 11 11 12 12 12 12 12 11 11 12 12 11 10 9 9
18 11 1 14 23 19 17 17 18 18 18 18 18 17 16 18 18 17 18 18 16 15 15 16 17 17 17 17 18 18 19 19 19 18 19 19 18 16 16 16 16 16 15 15 14 14 13 13 13 12 12 13 12 12 12 12 11 11 11 11 10 10 9
20 17 21 23 17 5 20 19 18 18 19 18 17 17 17 17 18 19 19 19 17 15 15 14 16 17 17 16 17 17 18 19 18 18 17 17 17 16 17 16 16 16 15 14 15 15 14 13 14 13 12 12 12 12 11 11 11 11 11 11 10 9 9
20 21 21 17 17 22 15 2 8 18 19 18 17 16 17 16 16 16 16 16 15 15 16 15 16 16 16 16 17 18 18 17 16 16 15 16 16 16 16 16 16 15 14 14 15 13 14 13 14 13 13 12 12 12 11 11 11 10 11 11 11 10 10
19 19 19 18 19 18 14 14 15 10 4 2 10 15 16 14 15 16 17 17 16 16 16 15 16 16 16 17 17 16 16 15 14 15 15 16 17 17 16 16 16 15 15 15 15 14 14 13 13 14 14 13 13 12 11 10 10 12 17 15 11 11 9
18 17 16 16 16 16 15 15 14 14 11 9 8 7 4 2 10 14 15 15 16 16 16 16 15 15 17 17 15 15 14 14 14 15 16 17 16 16 16 16 15 15 15 15 15 15 14 13 13 14 14 14 13 13 11 11 10 17 17 18 18 12 10
17 17 16 16 16 15 15 15 17 13 11 10 7 5 3 4 2 5 9 11 13 11 11 12 14 16 16 16 14 14 15 15 15 15 16 16 16 16 16 15 15 15 15 14 15 14 13 14 13 13 14 13 13 13 12 11 13 17 18 19 18 16 12
17 16 16 16 15 15 16 14 11 13 12 11 7 3 3 3 1 1 6 8 8 11 12 11 11 14 14 14 14 15 15 14 15 16 16 16 16 15 15 15 15 16 15 16 15 14 15 15 14 12 13 14 14 13 13 12 15 17 19 19 19 19 16
16 15 15 15 15 15 15 12 13 14 15 14 12 11 3 2 2 3 5 4 5 8 6 4 7 16 14 14 14 15 15 15 15 16 16 15 15 14 15 16 16 16 15 14 13 15 15 15 15 12 12 13 14 13 13 13 15 18 19 19 19 19 17
15 16 15 14 14 14 12 12 12 12 15 16 15 12 11 9 3 1 2 6 7 8 10 10 13 15 15 15 15 15 15 16 16 16 15 14 14 14 16 17 15 15 14 14 15 15 15 15 15 14 12 12 13 13 13 12 17 18 19 19 20 20 17
15 15 16 15 15 14 13 14 14 13 12 12 13 13 12 10 11 8 8 9 9 10 12 11 13 16 16 17 15 17 17 18 17 16 15 15 15 15 16 16 16 16 14 13 13 12 12 13 13 14 13 11 12 13 13 13 19 19 20 21 21 21 13
14 14 14 15 16 15 13 14 14 15 13 10 11 11 9 9 11 13 10 7 13 12 13 13 14 16 17 17 17 18 18 18 18 17 16 16 16 16 16 16 16 14 12 13 13 13 13 14 14 13 14 13 12 13 13 12 16 21 21 21 22 16 11
14 13 13 14 14 13 15 15 15 16 15 16 13 10 12 12 11 13 13 9 8 12 13 15 16 18 17 16 17 18 18 18 18 18 17 16 18 17 16 15 13 14 13 13 13 14 14 13 12 12 13 15 14 13 12 13 14 21 21 22 22 18 14
15 13 14 14 14 15 16 15 15 15 15 16 15 15 14 14 14 12 14 12 9 8 14 16 18 19 18 17 17 17 17 17 18 18 18 18 17 16 16 15 15 13 12 13 12 12 11 12 12 12 12 13 14 16 15 11 12 20 22 23 22 19 12
15 15 15 14 13 13 14 14 15 16 16 16 16 16 14 13 11 13 14 14 11 12 12 15 17 17 16 14 15 15 16 16 17 18 18 18 16 15 15 13 12 13 14 13 12 11 11 11 12 13 12 12 13 13 14 14 9 14 21 22 22 23 15
8 12 14 15 16 16 14 13 13 14 15 14 16 16 14 12 13 14 13 13 14 14 14 13 12 12 10 10 13 14 15 15 16 18 18 16 16 15 13 13 13 13 13 14 12 12 11 12 12 13 12 12 12 12 13 13 12 12 20 21 22 23 20
11 12 11 11 14 15 15 14 14 15 15 15 16 15 13 13 14 14 14 14 16 17 15 13 12 11 9 9 13 14 15 16 15 16 15 14 13 13 14 14 13 13 14 13 12 13 13 11 11 12 12 12 12 12 12 13 17 10 16 21 21 21 23
11 11 12 14 15 16 15 14 14 14 15 14 15 14 14 15 16 16 15 15 17 17 16 16 13 12 13 12 13 13 14 14 15 14 11 13 15 15 15 13 13 13 13 13 13 14 14 12 11 12 12 11 11 11 11 11 12 17 14 18 21 22 22
8 9 9 10 12 14 15 14 13 13 13 13 13 13 13 13 16 16 17 19 17 15 16 15 16 14 15 14 15 15 14 15 15 14 13 14 14 14 14 13 13 13 12 13 13 12 13 12 10 11 12 12 11 11 11 11 10 14 19 17 22 21 24
6 7 9 11 13 13 13 14 16 15 14 12 15 14 13 12 15 18 20 19 16 16 17 16 15 16 17 16 15 15 14 14 13 14 14 13 14 14 14 14 13 13 13 13 13 12 13 12 12 11 12 12 12 12 11 11 11 11 15 22 22 23 23
7 7 8 10 11 12 14 15 15 15 16 16 15 15 14 14 13 17 20 19 18 17 17 17 16 15 17 16 15 16 15 14 14 14 14 14 13 14 13 13 13 13 12 12 12 13 13 12 12 12 11 11 12 12 12 12 11 11 11 14 18 18 22
9 7 8 10 11 13 14 15 14 15 17 18 15 13 13 15 15 15 16 17 18 17 17 19 16 15 15 15 14 15 14 15 13 13 13 13 12 11 11 12 12 13 12 12 13 14 13 12 13 13 12 12 11 12 11 11 11 10 10 11 10 11 13
9 10 9 8 10 11 13 14 14 16 18 17 17 15 13 14 15 16 16 16 14 12 16 16 13 14 15 16 14 13 14 14 17 16 12 12 12 11 11 12 13 14 14 15 15 15 14 14 14 14 14 13 12 11 11 11 11 11 11 11 11 12 11
7 8 8 10 10 10 12 13 15 14 16 17 14 14 15 14 16 16 16 14 11 11 13 13 12 14 14 14 13 13 13 12 12 12 12 12 12 12 13 15 14 14 13 14 13 14 15 16 15 15 15 15 14 13 12 10 11 13 14 16 18 16 12
7 7 7 8 8 9 11 14 14 14 15 15 13 15 14 14 14 15 15 12 11 9 10 11 7 10 12 12 11 11 11 10 11 12 12 13 13 13 7 6 3 4 12 14 17 18 18 14 13 14 13 13 12 13 13 14 13 10 17 18 19 19 21
7 5 6 8 8 9 12 15 16 13 13 14 14 14 16 17 17 18 15 11 9 9 8 7 5 3 6 7 8 11 12 11 12 12 12 12 12 11 10 7 2 10 11 9 7 16 18 17 18 15 14 13 11 11 14 12 9 14 18 17 18 19 19
6 5 5 5 5 9 12 14 15 14 16 15 16 17 19 18 17 16 17 12 9 8 8 7 5 4 4 5 9 8 7 6 5 5 5 4 8 9 10 10 8 1 11 12 10 3 11 12 11 14 17 17 13 8 4 5 11 16 17 19 20 20 19
Wind_Direction
185 187 186 187 186 188 190 184 182 183 179 178 179 178 177 179 177 177 177 181 184 184 184 179 179 179 182 184 185 183 182 179 182 178 177 182 189 184 179 179 176 180 173 175 183 186 185 185 187 185 183 183 190 189 184 181 172 173 173 160 135 128 149
186 187 190 189 187 190 191 187 183 180 182 178 179 180 178 179 179 179 179 181 184 184 184 183 180 183 183 184 183 185 184 184 183 183 178 176 184 187 185 184 180 185 182 184 181 185 182 192 187 184 184 185 188 189 184 180 173 171 165 162 156 169 177
185 189 187 185 189 188 187 185 184 184 183 183 182 183 182 182 182 181 179 180 183 185 186 186 185 184 185 183 182 186 188 186 184 184 185 183 182 184 188 186 189 185 189 180 180 186 187 195 192 189 181 187 188 188 187 183 178 172 173 173 165 175 187
186 190 188 188 186 184 184 184 184 185 184 183 184 184 185 184 182 182 179 180 182 183 186 189 187 186 186 186 187 186 188 190 190 189 190 188 186 180 182 189 190 190 186 188 187 190 195 191 195 191 187 182 187 188 186 187 182 176 175 174 179 181 185
189 187 188 186 184 181 184 185 187 186 186 185 182 184 185 183 182 182 180 181 181 185 187 186 186 186 188 190 190 189 189 189 192 193 192 191 190 184 182 188 190 191 194 193 188 191 196 197 195 190 188 181 184 186 187 186 187 179 178 174 180 180 187
190 189 184 185 182 183 184 186 186 187 187 186 183 183 184 183 183 185 183 179 183 185 184 184 187 187 189 191 193 194 192 193 192 192 193 192 189 192 193 191 189 192 190 196 195 191 193 196 196 193 189 185 184 186 188 189 187 183 180 181 183 183 185
189 185 186 183 182 181 184 184 184 187 187 186 184 184 183 184 185 188 186 183 182 182 183 186 189 187 189 189 195 194 194 193 192 195 194 195 194 196 197 197 195 194 194 189 198 199 194 194 198 194 192 190 189 187 188 190 191 185 183 184 186 190 188
182 185 186 185 181 182 184 183 182 184 185 185 184 182 184 186 187 187 189 187 182 182 185 187 189 190 188 190 193 196 196 196 194 194 193 195 196 198 199 200 200 199 195 193 197 196 204 201 195 196 192 191 192 191 188 189 190 188 182 188 188 191 193
182 181 183 183 182 183 184 182 180 184 183 185 186 184 184 186 190 192 189 184 183 184 187 188 190 191 188 190 192 197 198 196 195 194 194 196 197 200 199 201 202 199 198 200 199 196 199 204 200 193 193 193 192 191 191 188 190 192 188 191 191 191 195
176 178 181 183 182 182 184 180 179 178 185 189 187 184 185 188 189 190 190 187 183 186 187 188 190 190 189 190 194 196 196 197 197 195 195 197 198 200 201 200 202 200 200 201 199 198 200 200 202 193 192 194 192 192 192 189 192 193 196 195 193 193 196
182 178 179 180 180 182 179 178 177 178 182 183 182 182 185 188 188 188 191 189 185 186 185 186 187 191 193 192 194 194 197 199 197 197 197 198 198 199 199 200 200 199 202 199 201 200 198 201 200 196 192 194 193 193 193 192 192 194 198 198 195 195 194
162 179 176 178 182 177 176 179 176 179 181 181 181 180 183 186 188 189 190 192 187 182 182 185 186 193 194 193 193 195 198 200 199 200 199 198 198 199 198 198 198 198 200 200 201 200 199 198 199 197 195 196 194 193 195 193 192 194 197 198 196 194 194
47 43 153 188 179 174 179 175 179 181 181 181 182 181 182 185 189 192 193 193 191 188 186 186 188 191 195 192 194 195 198 199 201 201 200 199 199 197 198 199 199 197 199 199 201 200 200 199 199 199 196 197 195 195 194 194 194 195 197 198 196 194 193
36 46 50 37 13 216 178 175 180 182 182 183 185 183 183 185 189 192 193 193 193 191 190 193 194 194 195 193 193 196 198 200 200 201 200 199 198 198 198 198 199 199 198 197 201 202 202 200 199 198 198 197 197 197 193 194 195 196 197 199 198 194 195
33 37 45 39 30 31 16 341 196 182 179 184 185 183 184 185 190 194 196 195 195 194 196 193 197 198 196 195 194 197 198 198 199 199 199 198 197 199 199 199 199 198 196 196 199 201 202 201 198 197 199 198 197 197 195 195 198 196 197 198 200 197 197
32 34 31 30 37 30 19 22 23 15 13 232 196 187 186 187 190 190 192 196 195 195 196 194 198 199 199 199 198 196 194 195 196 196 196 196 197 198 198 198 197 197 197 195 197 198 199 200 196 197 197 197 197 196 196 197 199 199 196 196 197 198 200
26 25 21 25 31 27 16 12 15 20 26 35 37 30 5 275 208 194 194 197 199 199 196 197 199 201 205 205 198 193 190 193 196 195 196 198 198 197 198 197 196 196 196 195 194 196 196 197 196 197 196 197 197 197 200 199 199 194 195 196 196 196 201
23 14 17 18 17 20 23 9 3 5 10 3 7 15 61 80 74 191 206 204 205 204 201 199 202 207 208 209 199 191 191 193 194 196 199 197 198 197 197 197 196 196 195 194 193 194 193 197 197 195 194 196 197 199 201 204 198 189 194 196 196 196 200
16 12 13 11 10 14 12 0 355 345 0 353 5 8 57 24 346 145 141 117 89 52 17 331 272 225 211 209 197 195 193 192 194 198 198 199 199 197 196 197 198 197 195 195 193 190 193 197 195 195 193 192 195 198 200 204 199 191 193 196 197 200 200
12 9 9 6 10 7 4 355 353 342 343 345 341 346 298 187 220 152 87 77 114 118 129 133 344 323 279 212 200 195 193 193 195 198 200 199 197 196 197 199 200 198 196 193 189 191 195 195 197 193 192 193 193 196 198 202 197 192 193 196 198 201 201
10 5 3 360 2 358 359 359 354 340 331 328 332 337 340 326 264 229 113 140 154 171 179 184 191 209 245 246 202 193 192 194 196 199 199 197 196 197 199 201 202 199 196 193 191 192 193 194 195 195 192 193 192 194 197 202 192 189 192 195 198 202 200
7 0 358 356 351 349 357 355 343 335 330 318 323 328 327 327 328 329 257 219 179 185 195 205 201 211 215 228 211 194 192 193 195 197 196 195 196 198 201 202 201 200 197 195 195 195 194 196 195 195 194 190 191 194 199 200 186 187 190 196 200 199 198
3 358 353 350 347 345 353 341 337 331 326 325 322 326 318 321 325 319 318 244 208 193 196 200 212 215 215 220 207 197 193 192 194 194 193 193 195 200 201 200 201 202 196 198 197 192 193 195 196 195 195 193 190 193 199 202 188 187 190 195 200 193 201
357 355 350 345 346 343 341 337 335 331 329 329 329 331 333 337 326 323 315 306 248 214 204 204 213 217 217 215 205 198 193 192 192 193 192 193 198 200 200 199 200 200 196 199 198 196 194 193 196 196 198 198 197 192 191 202 189 188 190 194 196 189 197
346 352 345 343 344 341 335 336 333 328 326 328 329 335 338 332 325 317 305 298 295 255 220 212 215 217 216 211 205 198 194 191 191 191 192 195 199 197 197 198 198 198 197 202 202 200 191 191 196 198 199 201 202 200 197 199 188 191 192 194 193 191 199
339 342 342 340 339 338 331 331 331 332 331 329 329 330 330 327 317 303 296 294 294 288 265 228 216 214 215 210 202 199 194 193 191 192 192 195 195 193 197 195 193 196 199 201 202 199 195 191 195 197 200 198 201 202 205 208 192 189 197 196 194 192 194
336 341 340 341 337 334 333 333 332 328 324 322 322 324 326 324 314 303 298 297 294 283 273 268 239 219 209 196 198 196 195 194 193 192 193 192 190 190 192 193 195 194 196 200 201 201 199 196 195 198 200 199 201 202 204 209 203 189 192 198 195 196 194
340 335 339 337 333 332 332 331 327 325 324 322 321 320 322 321 311 302 301 297 289 281 282 278 259 233 208 188 196 197 195 195 195 193 191 188 184 186 193 194 193 194 196 198 199 201 202 199 195 197 199 200 200 203 205 205 205 182 195 193 196 195 197
332 336 336 338 335 333 330 327 327 325 321 322 322 320 317 316 307 302 297 288 281 285 284 282 267 235 218 201 195 195 194 195 190 189 188 187 187 188 192 190 192 194 192 195 198 201 202 201 197 196 198 199 202 204 205 202 204 185 185 196 193 196 199
313 323 330 330 327 322 324 319 318 318 321 320 319 316 314 311 307 300 296 287 287 288 282 275 266 238 217 207 200 196 193 190 189 188 188 187 185 188 189 190 193 192 193 194 197 199 202 203 199 197 197 198 201 203 204 203 200 191 185 188 195 196 199
305 313 327 330 323 319 318 317 319 321 319 320 318 317 313 310 303 299 293 291 296 290 287 279 264 234 214 206 198 195 192 186 187 187 187 187 183 185 189 191 189 193 195 194 197 199 201 203 201 200 198 198 200 202 202 200 199 194 194 190 193 197 200
317 319 329 321 318 317 316 317 320 319 318 319 317 314 316 309 301 295 292 294 292 287 282 277 262 231 212 205 197 194 186 184 185 186 187 184 185 188 189 189 191 196 195 196 199 201 201 202 202 203 202 202 201 202 201 199 199 195 193 198 195 198 201
309 316 323 319 317 320 320 321 317 320 322 317 314 310 305 307 299 289 289 289 286 287 292 285 256 224 208 197 192 187 183 182 183 184 185 184 185 188 187 190 193 196 198 199 202 201 202 201 202 205 206 206 203 203 201 200 199 193 191 192 193 202 206
311 318 319 315 315 318 317 313 314 319 322 317 317 313 306 305 298 292 290 286 288 306 304 282 241 215 203 192 183 183 184 183 180 177 180 184 183 187 191 195 197 199 201 201 199 198 200 201 201 204 204 207 205 201 201 202 200 195 191 191 191 199 197
302 305 308 316 317 319 316 314 315 314 317 313 308 310 311 300 300 296 288 300 311 312 310 286 231 212 201 191 183 183 181 179 176 179 179 182 188 193 195 196 201 205 209 207 202 202 199 198 201 202 203 203 202 197 199 201 202 205 191 188 189 187 185
291 293 306 307 308 314 314 313 313 319 318 311 312 313 304 297 305 303 302 303 299 297 308 309 263 216 201 186 184 176 174 176 177 181 182 186 191 194 183 27 46 215 211 208 205 207 206 203 208 206 203 204 206 202 198 202 208 180 179 185 184 185 183
283 298 307 310 313 318 320 317 317 317 319 322 323 315 318 320 316 315 304 301 301 295 290 294 309 209 170 171 179 175 179 182 182 185 189 191 193 193 183 176 116 43 33 357 259 205 203 206 212 211 206 201 206 210 214 213 150 158 175 178 181 184 187
273 280 291 298 307 312 318 318 320 327 328 324 328 327 324 318 314 322 323 315 311 303 292 294 286 264 262 184 153 121 111 103 72 26 350 270 214 193 178 180 177 241 24 29 15 322 196 194 205 206 197 200 196 173 210 223 187 170 172 180 181 186 188